[[{"header":{"parameterUnit":"m.s-1","parameterCategory":2,"la1":30.2991,"la2":30.254,"lo1":-89.0895,"lo2":-89.0444,"dy":0.0017,"dx":0.0017,"nx":28,"ny":28,"refTime":"2026-01-31T09:00:00:Z","depth":"0","parameterNumber":2,"parameterNumberName":"U-component_of_CURRENTS"},"data":[0,0,0,0,0,0,0,0,0,0,0,0,0,0,0,0,0,0,0,0,0,0,0,0,0,0,0,0,0,0,0,0,0,0,0,0,0,0,0,0,0,0,0,0,0,0,0,0,0,0,0,0,0,0,0,0,0,0,0.1706,0.1707,0,0.1748,0.1749,0.1749,0.175,0.175,0.175,0.175,0.1738,0.1738,0.1738,0,0,0,0,0,0,0,0,0,0,0,0,0,0.1614,0.1615,0.1706,0.1707,0.1708,0.1748,0.1749,0.1749,0.175,0.175,0.175,0.1749,0.1738,0.1738,0.1738,0,0,0,0,0,0,0,0,0,0,0,0,0,0.1652,0.1616,0.1706,0.1716,0.1717,0.1748,0.1749,0.1749,0.175,0.175,0.175,0.1749,0.1738,0.1738,0.1738,0.1744,0,0,0.1737,0.1737,0,0,0,0,0,0,0,0,0.165,0.1655,0.1713,0.1715,0.1717,0.1746,0.1712,0.1746,0.175,0.1735,0.1749,0.1749,0.1738,0.1738,0.1743,0.1744,0.1743,0.1737,0.1737,0.1737,0.1737,0,0,0,0,0,0,0,0.1647,0.1653,0.172,0.1714,0.1716,0.1713,0.1718,0.1718,0.1735,0.1736,0.1737,0.1746,0.1738,0.1743,0.1743,0.1743,0.1737,0.1737,0.1737,0.1737,0.1765,0.1766,0,0,0,0,0,0,0.1649,0.1651,0.1719,0.1722,0.1685,0.1715,0.1721,0.1735,0.1736,0.1737,0.1747,0.1746,0.1744,0.1743,0.1742,0.1769,0.1737,0.1737,0.1737,0.1764,0.1765,0.1766,0,0,0,0,0,0,0.1647,0.1655,0.1717,0.1689,0.1697,0.1718,0.1733,0.1736,0.1744,0.1745,0.1744,0.1753,0.1743,0.1743,0.1751,0.1768,0.1737,0.1737,0.1763,0.1765,0.1766,0.181,0,0,0,0,0,0,0.1644,0.1654,0.1663,0.1689,0.1699,0.1741,0.1734,0.1737,0.1752,0.1752,0.175,0.1749,0.1743,0.1751,0.1751,0.1767,0.1737,0.1762,0.1764,0.1765,0.1807,0.1812,0.1817,0,0,0,0,0,0.1641,0.1655,0.1663,0.1671,0.1711,0.1742,0.1746,0.1757,0.1752,0.1761,0.1762,0.1749,0.1761,0.1752,0.1751,0.1768,0.1762,0.1763,0.1765,0.1805,0.1811,0.1816,0,0,0,0,0,0,0.1616,0.1658,0.1666,0.1692,0.1718,0.1743,0.1754,0.176,0.1769,0.1767,0.1759,0.1759,0.1773,0.1764,0.1755,0.178,0.1759,0.1761,0.179,0.1795,0.18,0.1807,0.1737,0,0,0,0,0,0.1616,0.1639,0.1676,0.1695,0.171,0.1732,0.1744,0.1756,0.1769,0.1773,0.1772,0.1773,0.178,0.1782,0.1785,0.1798,0.1806,0.1808,0.1812,0.1816,0.1823,0.1846,0.1854,0.1772,0.1772,0.1772,0,0,0.161,0.1638,0.1648,0.1691,0.1711,0.174,0.1738,0.1764,0.1786,0.1769,0.179,0.1789,0.1787,0.1805,0.181,0.18,0.1848,0.1819,0.1822,0.1826,0.1849,0.1857,0.1864,0.1773,0.1773,0.1773,0,0,0.1614,0.1636,0.1659,0.1686,0.1726,0.1745,0.1754,0.1785,0.1796,0.1818,0.1814,0.1825,0.183,0.1839,0.1842,0.1874,0.1872,0.1872,0.1902,0.1926,0.1933,0.1939,0.1976,0.1986,0.1874,0.1874,0.1874,0,0.1602,0.1643,0.1668,0.1701,0.1726,0.1749,0.1779,0.1798,0.1826,0.1841,0.1828,0.1855,0.1849,0.1881,0.1891,0.1885,0.1902,0.1881,0.1932,0.1939,0.1944,0.1981,0.1991,0.1877,0.1876,0.1876,0.1876,0,0.163,0.1662,0.1679,0.173,0.1757,0.1788,0.1824,0.1848,0.1859,0.1878,0.1909,0.1907,0.1925,0.1924,0.1916,0.1957,0.1958,0.1936,0.1919,0.1955,0.1992,0.2001,0.188,0.1879,0.1878,0.1878,0,0,0.1605,0.1682,0.1688,0.1718,0.1777,0.1803,0.1846,0.1893,0.1924,0.1941,0.1978,0.1989,0.199,0.1994,0.1989,0.2005,0.206,0.1989,0.199,0.2029,0.2129,0.2191,0.2206,0.2048,0.2049,0.205,0.2145,0,0.1618,0.1677,0.1717,0.1771,0.1805,0.1847,0.1886,0.193,0.1961,0.2002,0.2013,0.2042,0.2018,0.2029,0.2045,0.2056,0.2084,0.2038,0.2086,0.2088,0.214,0.2219,0.2258,0.2351,0.2154,0.2155,0.2156,0,0.1634,0.1674,0.1725,0.18,0.1818,0.1852,0.1922,0.1963,0.2026,0.205,0.2086,0.21,0.2139,0.2102,0.2156,0.2129,0.2137,0.214,0.2143,0.2191,0.2167,0.2279,0.2374,0.2403,0.217,0.2169,0.2168,0,0.1602,0.1682,0.172,0.1746,0.1828,0.1858,0.1902,0.1971,0.2013,0.2085,0.2124,0.2166,0.2197,0.2211,0.2234,0.2198,0.2292,0.224,0.2308,0.2312,0.2351,0.2357,0.2481,0.228,0.228,0.228,0.228,0,0.1602,0.1633,0.1707,0.1728,0.1774,0.1842,0.1896,0.195,0.2031,0.2094,0.2144,0.2205,0.2225,0.2282,0.2276,0.2349,0.2335,0.2343,0.2351,0.237,0.2376,0.2404,0.2388,0.2284,0.2283,0.2282,0.2281,0,0.1557,0.1608,0.1652,0.1733,0.1758,0.1788,0.1882,0.1928,0.2016,0.2103,0.2132,0.2246,0.2343,0.2377,0.2423,0.2425,0.2451,0.2486,0.2522,0.2533,0.2612,0.2596,0.2568,0.248,0.2581,0.2584,0.2585,0,0.154,0.1557,0.1631,0.1653,0.1688,0.1745,0.1788,0.1893,0.1957,0.2132,0.2178,0.2316,0.2422,0.2549,0.2595,0.2652,0.2548,0.2696,0.2629,0.2662,0.2648,0.2487,0.2399,0.27,0.2703,0.2705,0.2707,0,0.1498,0.1519,0.1552,0.1596,0.164,0.1695,0.1777,0.1831,0.1978,0.2083,0.2248,0.2357,0.2541,0.266,0.2761,0.2779,0.2654,0.2743,0.2764,0.2762,0.2605,0.251,0.2595,0.2727,0.2725,0.2723,0.2722,0.2721,0.1452,0.1458,0.1498,0.1537,0.1584,0.1651,0.1702,0.1814,0.1935,0.2128,0.2257,0.2455,0.2695,0.2871,0.2866,0.2971,0.2798,0.2946,0.2929,0.2763,0.2669,0.2815,0.2958,0.2957,0.2956,0.2956,0.2956,0,0.1394,0.1411,0.1443,0.1494,0.153,0.1581,0.1696,0.1772,0.1913,0.2129,0.2295,0.2652,0.2849,0.3002,0.3215,0.3192,0.2972,0.3134,0.2929,0.2829,0.2996,0.2997,0.317,0.317,0.317,0.317,0.317,0.317,0.1363,0.1367,0.139,0.1427,0.147,0.155,0.1617,0.1747,0.1915,0.2172,0.2409,0.2614,0.3064,0.3487,0.3585,0.3462,0.3157,0.3083,0.295,0.3146,0.3126,0.3106,0.3106,0.3299,0.3299,0.2695,0.2692,0.2689]},{"header":{"parameterUnit":"m.s-1","parameterCategory":2,"la1":30.2991,"la2":30.254,"lo1":-89.0895,"lo2":-89.0444,"dy":0.0017,"dx":0.0017,"nx":28,"ny":28,"refTime":"2026-01-31T09:00:00:Z","depth":"0","parameterNumber":3,"parameterNumberName":"V-component_of_CURRENTS"},"data":[0,0,0,0,0,0,0,0,0,0,0,0,0,0,0,0,0,0,0,0,0,0,0,0,0,0,0,0,0,0,0,0,0,0,0,0,0,0,0,0,0,0,0,0,0,0,0,0,0,0,0,0,0,0,0,0,0,0,-0.0399,-0.0399,0,-0.0437,-0.0438,-0.0438,-0.0473,-0.0473,-0.0473,-0.0474,-0.0505,-0.0506,-0.0506,0,0,0,0,0,0,0,0,0,0,0,0,0,-0.0395,-0.0395,-0.0398,-0.0399,-0.0399,-0.0437,-0.0438,-0.0439,-0.0473,-0.0473,-0.0473,-0.0474,-0.0505,-0.0506,-0.0506,0,0,0,0,0,0,0,0,0,0,0,0,0,-0.0412,-0.0395,-0.0398,-0.0421,-0.0423,-0.0437,-0.0438,-0.0439,-0.0472,-0.0473,-0.0474,-0.0474,-0.0505,-0.0505,-0.0506,-0.0499,0,0,-0.0508,-0.0509,0,0,0,0,0,0,0,0,-0.0411,-0.0412,-0.0417,-0.0419,-0.0422,-0.0451,-0.0448,-0.0459,-0.0472,-0.0454,-0.0474,-0.0474,-0.0486,-0.0488,-0.0494,-0.0501,-0.0502,-0.0508,-0.0509,-0.0509,-0.0509,0,0,0,0,0,0,0,-0.0409,-0.0411,-0.0414,-0.0418,-0.0421,-0.0443,-0.0446,-0.0451,-0.0466,-0.0456,-0.0458,-0.0462,-0.0487,-0.0494,-0.0495,-0.0503,-0.0508,-0.0509,-0.051,-0.051,-0.0515,-0.0515,0,0,0,0,0,0,-0.0401,-0.0409,-0.0413,-0.0415,-0.0417,-0.0443,-0.0446,-0.0441,-0.0466,-0.0471,-0.0461,-0.0463,-0.0492,-0.0494,-0.0497,-0.0487,-0.0509,-0.051,-0.051,-0.0515,-0.0515,-0.0515,0,0,0,0,0,0,-0.0401,-0.0401,-0.0411,-0.0414,-0.0417,-0.0442,-0.0437,-0.0441,-0.0448,-0.0471,-0.0475,-0.0463,-0.0493,-0.0496,-0.05,-0.0489,-0.051,-0.0511,-0.0516,-0.0515,-0.0515,-0.047,0,0,0,0,0,0,-0.04,-0.04,-0.0392,-0.0413,-0.0416,-0.0411,-0.0436,-0.0442,-0.0449,-0.0452,-0.0473,-0.0477,-0.0493,-0.0498,-0.05,-0.049,-0.0511,-0.0516,-0.0516,-0.0515,-0.0472,-0.0468,-0.0465,0,0,0,0,0,-0.04,-0.0379,-0.0391,-0.0392,-0.0404,-0.041,-0.0414,-0.0435,-0.0449,-0.0444,-0.0463,-0.0477,-0.0496,-0.0498,-0.0501,-0.0491,-0.0516,-0.0516,-0.0515,-0.0474,-0.0469,-0.0465,0,0,0,0,0,0,-0.0369,-0.0381,-0.0395,-0.0378,-0.0393,-0.0416,-0.0412,-0.043,-0.0442,-0.0444,-0.047,-0.0475,-0.0476,-0.0489,-0.049,-0.0492,-0.0509,-0.0509,-0.0477,-0.0473,-0.0469,-0.0456,-0.0512,0,0,0,0,0,-0.036,-0.0349,-0.037,-0.0357,-0.0361,-0.0388,-0.0393,-0.0408,-0.0423,-0.0429,-0.0446,-0.0463,-0.0474,-0.0478,-0.049,-0.0485,-0.0509,-0.0482,-0.0479,-0.0475,-0.0467,-0.05,-0.0499,-0.0512,-0.0513,-0.0513,0,0,-0.0344,-0.035,-0.0344,-0.035,-0.0363,-0.0357,-0.0392,-0.0393,-0.039,-0.0429,-0.0426,-0.045,-0.0471,-0.0471,-0.0473,-0.048,-0.0484,-0.0475,-0.0472,-0.0464,-0.0499,-0.0498,-0.0497,-0.0512,-0.0512,-0.0512,0,0,-0.0303,-0.0312,-0.0291,-0.0299,-0.0314,-0.033,-0.0329,-0.0351,-0.0363,-0.0367,-0.0396,-0.0413,-0.0427,-0.0443,-0.0452,-0.0434,-0.0466,-0.0439,-0.0407,-0.044,-0.0439,-0.0438,-0.0467,-0.047,-0.0436,-0.0435,-0.0435,0,-0.0284,-0.026,-0.0286,-0.0271,-0.027,-0.0314,-0.0293,-0.031,-0.0332,-0.0338,-0.0358,-0.0391,-0.0412,-0.0416,-0.0413,-0.0425,-0.045,-0.042,-0.0435,-0.0435,-0.0435,-0.0465,-0.0468,-0.0433,-0.0434,-0.0434,-0.0434,0,-0.023,-0.0215,-0.0202,-0.0199,-0.0202,-0.0191,-0.0219,-0.0227,-0.0253,-0.0276,-0.0292,-0.033,-0.035,-0.0362,-0.0382,-0.039,-0.041,-0.0428,-0.0444,-0.0431,-0.0464,-0.0468,-0.043,-0.0431,-0.0432,-0.0432,0,0,-0.0178,-0.0165,-0.0161,-0.0145,-0.0162,-0.0155,-0.0155,-0.0164,-0.0161,-0.0203,-0.0203,-0.0241,-0.0277,-0.029,-0.0324,-0.0353,-0.0381,-0.0387,-0.039,-0.0413,-0.0453,-0.048,-0.0488,-0.0406,-0.0406,-0.0407,-0.0475,0,-0.0128,-0.0076,-0.009,-0.0047,-0.0023,-0.0062,-0.0054,-0.0073,-0.0105,-0.0119,-0.0178,-0.0193,-0.0245,-0.0255,-0.0295,-0.0357,-0.039,-0.0361,-0.0464,-0.0467,-0.0491,-0.0493,-0.0526,-0.0592,-0.0479,-0.048,-0.0481,0,-0.007,-0.0042,0.0014,0.0037,0.0043,0.0056,0.0057,0.0054,0.0011,-0.0013,-0.0058,-0.011,-0.0159,-0.0207,-0.0313,-0.0293,-0.0366,-0.0421,-0.0425,-0.0468,-0.0502,-0.0587,-0.0604,-0.0829,-0.0488,-0.0487,-0.0487,0,-0.0012,0.0029,0.008,0.0088,0.0103,0.0117,0.0115,0.0087,0.0092,0.0046,0.0046,-0.0038,-0.0071,-0.0175,-0.0299,-0.0307,-0.0419,-0.0446,-0.0539,-0.0542,-0.0599,-0.0606,-0.0842,-0.052,-0.052,-0.052,-0.0519,0,0.005,0.0088,0.0113,0.014,0.0199,0.0179,0.0219,0.02,0.0179,0.0199,0.0103,0.01,-0.0066,-0.0154,-0.0274,-0.0419,-0.0405,-0.0533,-0.0562,-0.0584,-0.0589,-0.0809,-0.0934,-0.0522,-0.0522,-0.0521,-0.0521,0,0.0106,0.012,0.0181,0.0214,0.0229,0.0266,0.029,0.0316,0.0285,0.0306,0.0297,0.0198,0.008,-0.0087,-0.0257,-0.0379,-0.0656,-0.057,-0.0584,-0.0614,-0.0912,-0.1032,-0.1293,-0.1391,-0.0688,-0.0689,-0.069,0,0.0139,0.0179,0.024,0.0281,0.0299,0.0348,0.0386,0.0371,0.0401,0.0377,0.04,0.0285,0.0224,-0.0048,-0.0295,-0.052,-0.0712,-0.0697,-0.072,-0.0939,-0.1094,-0.1185,-0.1254,-0.0782,-0.0783,-0.0784,-0.0785,0,0.0203,0.0221,0.0272,0.0363,0.0417,0.0485,0.0534,0.0579,0.0571,0.0581,0.0578,0.0522,0.0241,-0.0018,-0.0344,-0.0516,-0.0891,-0.073,-0.0962,-0.1194,-0.1303,-0.1407,-0.0726,-0.0797,-0.0796,-0.0795,-0.0794,-0.0794,0.0246,0.0296,0.0365,0.0456,0.0525,0.0625,0.0702,0.0745,0.0804,0.0834,0.074,0.0678,0.0253,-0.0207,-0.0476,-0.1012,-0.0995,-0.1167,-0.1293,-0.1363,-0.1472,-0.0812,-0.091,-0.091,-0.0909,-0.0909,-0.0909,0,0.0306,0.0367,0.0454,0.0576,0.0688,0.0697,0.081,0.0886,0.0978,0.0958,0.0934,0.0634,0.0135,-0.0374,-0.1075,-0.1477,-0.1633,-0.1725,-0.1884,-0.1924,-0.1347,-0.1365,-0.1559,-0.1559,-0.1559,-0.1559,-0.1559,-0.1558,0.0341,0.0441,0.0496,0.0704,0.0796,0.0951,0.103,0.1103,0.1122,0.1108,0.1,0.0853,0.0353,-0.0922,-0.1846,-0.2055,-0.2368,-0.2457,-0.2585,-0.2225,-0.2183,-0.2143,-0.2191,-0.2555,-0.2556,-0.3111,-0.3117,-0.3122]}],[{"header":{"parameterUnit":"m.s-1","parameterCategory":2,"la1":30.2991,"la2":30.254,"lo1":-89.0895,"lo2":-89.0444,"dy":0.0017,"dx":0.0017,"nx":28,"ny":28,"refTime":"2026-01-31T09:00:00:Z","depth":"2","parameterNumber":2,"parameterNumberName":"U-component_of_CURRENTS"},"data":[0,0,0,0,0,0,0,0,0,0,0,0,0,0,0,0,0,0,0,0,0,0,0,0,0,0,0,0,0,0,0,0,0,0,0,0,0,0,0,0,0,0,0,0,0,0,0,0,0,0,0,0,0,0,0,0,0,0,0.1677,0.1678,0,0.1718,0.1719,0.1719,0.1721,0.1721,0.1721,0.172,0.171,0.171,0.171,0,0,0,0,0,0,0,0,0,0,0,0,0,0.1586,0.1587,0.1677,0.1678,0.1678,0.1718,0.1719,0.1719,0.1721,0.1721,0.1721,0.172,0.171,0.171,0.171,0,0,0,0,0,0,0,0,0,0,0,0,0,0.1623,0.1588,0.1677,0.1686,0.1688,0.1718,0.1719,0.1719,0.1721,0.1721,0.1721,0.172,0.171,0.171,0.171,0.1716,0,0,0.171,0.171,0,0,0,0,0,0,0,0,0.1621,0.1626,0.1684,0.1686,0.1688,0.1717,0.1683,0.1716,0.1721,0.1706,0.172,0.172,0.171,0.171,0.1715,0.1715,0.1715,0.171,0.171,0.171,0.171,0,0,0,0,0,0,0,0.1619,0.1625,0.169,0.1685,0.1687,0.1684,0.1689,0.1689,0.1706,0.1707,0.1708,0.1717,0.171,0.1715,0.1714,0.1715,0.171,0.171,0.1709,0.1709,0.1737,0.1738,0,0,0,0,0,0,0.1621,0.1622,0.1689,0.1692,0.1656,0.1686,0.1692,0.1705,0.1707,0.1708,0.1717,0.1717,0.1715,0.1715,0.1714,0.1741,0.171,0.1709,0.1709,0.1737,0.1738,0.1739,0,0,0,0,0,0,0.1619,0.1626,0.1688,0.166,0.1668,0.1689,0.1704,0.1706,0.1715,0.1716,0.1715,0.1724,0.1715,0.1714,0.1723,0.174,0.1709,0.1709,0.1736,0.1737,0.1738,0.1782,0,0,0,0,0,0,0.1616,0.1626,0.1634,0.166,0.167,0.1711,0.1705,0.1708,0.1723,0.1723,0.1722,0.172,0.1715,0.1724,0.1723,0.1739,0.1709,0.1735,0.1736,0.1738,0.178,0.1785,0.1789,0,0,0,0,0,0.1613,0.1626,0.1634,0.1642,0.1681,0.1712,0.1716,0.1727,0.1723,0.1732,0.1733,0.1721,0.1733,0.1724,0.1724,0.174,0.1734,0.1736,0.1738,0.1778,0.1784,0.1789,0,0,0,0,0,0,0.1588,0.1629,0.1638,0.1663,0.1689,0.1714,0.1724,0.1731,0.174,0.1738,0.1731,0.173,0.1745,0.1736,0.1727,0.1753,0.1731,0.1733,0.1762,0.1768,0.1772,0.178,0.1709,0,0,0,0,0,0.1589,0.1611,0.1647,0.1666,0.1681,0.1703,0.1715,0.1727,0.174,0.1744,0.1744,0.1745,0.1752,0.1755,0.1757,0.177,0.1778,0.178,0.1785,0.1789,0.1795,0.1819,0.1826,0.1744,0.1744,0.1744,0,0,0.1582,0.161,0.162,0.1663,0.1682,0.1711,0.1709,0.1735,0.1757,0.1741,0.1762,0.1761,0.1759,0.1778,0.1783,0.1772,0.182,0.1791,0.1795,0.1799,0.1821,0.1829,0.1836,0.1746,0.1745,0.1745,0,0,0.1587,0.1609,0.1631,0.1659,0.1698,0.1716,0.1726,0.1757,0.1767,0.179,0.1786,0.1797,0.1803,0.1812,0.1815,0.1846,0.1844,0.1845,0.1875,0.1898,0.1905,0.1911,0.1948,0.1957,0.1847,0.1847,0.1847,0,0.1576,0.1615,0.1641,0.1673,0.1698,0.1721,0.1751,0.177,0.1798,0.1813,0.1801,0.1827,0.1822,0.1853,0.1864,0.1858,0.1874,0.1854,0.1905,0.1911,0.1916,0.1952,0.1962,0.1849,0.1849,0.1849,0.1848,0,0.1603,0.1635,0.1651,0.1702,0.1729,0.176,0.1796,0.1819,0.1831,0.185,0.1881,0.188,0.1897,0.1897,0.1889,0.1929,0.193,0.1909,0.1891,0.1928,0.1963,0.1972,0.1853,0.1852,0.1851,0.185,0,0,0.1578,0.1655,0.1661,0.1691,0.1749,0.1774,0.1817,0.1864,0.1895,0.1913,0.195,0.1961,0.1963,0.1967,0.1962,0.1977,0.2032,0.1962,0.1962,0.2001,0.21,0.2158,0.2174,0.2019,0.2021,0.2022,0.2115,0,0.1592,0.165,0.169,0.1744,0.1777,0.1819,0.1857,0.1901,0.1932,0.1973,0.1984,0.2013,0.199,0.2002,0.2017,0.2028,0.2055,0.201,0.2057,0.2058,0.2108,0.2186,0.198,0.2051,0.2124,0.2125,0.2126,0,0.1608,0.1648,0.1698,0.1772,0.1791,0.1824,0.1894,0.1934,0.1997,0.2022,0.2058,0.2071,0.211,0.2074,0.2126,0.21,0.2108,0.211,0.2114,0.2158,0.2134,0.2023,0.2064,0.2141,0.214,0.2139,0.2138,0,0.1576,0.1656,0.1694,0.1719,0.1801,0.1831,0.1875,0.1943,0.1985,0.2057,0.2095,0.2137,0.2168,0.2182,0.2204,0.2168,0.2261,0.221,0.2274,0.2278,0.2108,0.2096,0.2249,0.2249,0.2249,0.2249,0.2248,0,0.1577,0.1608,0.1682,0.1702,0.1749,0.1816,0.187,0.1924,0.2004,0.2066,0.2116,0.2176,0.2195,0.2252,0.2246,0.2316,0.2303,0.2309,0.2316,0.2122,0.2111,0.218,0.2171,0.2252,0.2251,0.2251,0.225,0,0.1533,0.1584,0.1628,0.1709,0.1733,0.1764,0.1857,0.1902,0.199,0.2075,0.2104,0.2217,0.2311,0.2344,0.239,0.239,0.2429,0.2449,0.2241,0.2224,0.2416,0.2408,0.2534,0.2537,0.254,0.2542,0.2544,0,0.1517,0.1534,0.1608,0.163,0.1664,0.1722,0.1764,0.1869,0.1932,0.2105,0.215,0.2285,0.238,0.2504,0.2498,0.2539,0.2533,0.2399,0.23,0.2457,0.245,0.2438,0.2426,0.2083,0.2081,0.2079,0.2078,0,0.1476,0.1498,0.153,0.1575,0.1618,0.1673,0.1754,0.1807,0.1952,0.2047,0.2209,0.2307,0.2442,0.2417,0.2494,0.2477,0.2379,0.2373,0.2576,0.207,0.2046,0.2035,0.2035,0.2062,0.2064,0.2065,0.2066,0.2066,0.1431,0.1437,0.1478,0.1517,0.1564,0.1629,0.1679,0.1755,0.1862,0.1976,0.2144,0.2205,0.2277,0.229,0.227,0.2244,0.2393,0.2277,0.2274,0.2275,0.2234,0.2219,0.226,0.2263,0.2265,0.2267,0.2269,0,0.1366,0.1391,0.1424,0.1475,0.1498,0.156,0.1674,0.1682,0.1764,0.1853,0.1952,0.1864,0.191,0.1966,0.1911,0.1985,0.1872,0.1918,0.1721,0.1742,0.1759,0.1682,0.1566,0.1563,0.1561,0.1559,0,0,0.1335,0.1336,0.1359,0.1387,0.1437,0.1485,0.155,0.1552,0.1592,0.1554,0.1562,0.1721,0.1882,0.1646,0.1684,0.1607,0.1635,0.1551,0.2121,0.1906,0.1918,0.199,0.1902,0,0,0,0,0]},{"header":{"parameterUnit":"m.s-1","parameterCategory":2,"la1":30.2991,"la2":30.254,"lo1":-89.0895,"lo2":-89.0444,"dy":0.0017,"dx":0.0017,"nx":28,"ny":28,"refTime":"2026-01-31T09:00:00:Z","depth":"2","parameterNumber":3,"parameterNumberName":"V-component_of_CURRENTS"},"data":[0,0,0,0,0,0,0,0,0,0,0,0,0,0,0,0,0,0,0,0,0,0,0,0,0,0,0,0,0,0,0,0,0,0,0,0,0,0,0,0,0,0,0,0,0,0,0,0,0,0,0,0,0,0,0,0,0,0,-0.0328,-0.0328,0,-0.0367,-0.0368,-0.0368,-0.0403,-0.0404,-0.0404,-0.0405,-0.0437,-0.0438,-0.0438,0,0,0,0,0,0,0,0,0,0,0,0,0,-0.0324,-0.0324,-0.0328,-0.0328,-0.0329,-0.0367,-0.0368,-0.0368,-0.0403,-0.0404,-0.0404,-0.0405,-0.0437,-0.0437,-0.0438,0,0,0,0,0,0,0,0,0,0,0,0,0,-0.0341,-0.0324,-0.0328,-0.0351,-0.0353,-0.0367,-0.0368,-0.0368,-0.0403,-0.0404,-0.0404,-0.0405,-0.0437,-0.0437,-0.0438,-0.043,0,0,-0.044,-0.0441,0,0,0,0,0,0,0,0,-0.034,-0.0341,-0.0347,-0.0349,-0.0352,-0.0381,-0.0378,-0.0389,-0.0403,-0.0384,-0.0405,-0.0405,-0.0417,-0.0419,-0.0426,-0.0432,-0.0433,-0.044,-0.0441,-0.0441,-0.0441,0,0,0,0,0,0,0,-0.0338,-0.034,-0.0344,-0.0347,-0.0351,-0.0373,-0.0376,-0.0381,-0.0397,-0.0386,-0.0389,-0.0393,-0.0419,-0.0425,-0.0427,-0.0434,-0.044,-0.0441,-0.0442,-0.0442,-0.0448,-0.0448,0,0,0,0,0,0,-0.033,-0.0338,-0.0342,-0.0345,-0.0347,-0.0373,-0.0376,-0.0371,-0.0397,-0.0402,-0.0392,-0.0394,-0.0423,-0.0426,-0.0428,-0.042,-0.0441,-0.0442,-0.0442,-0.0449,-0.0448,-0.0448,0,0,0,0,0,0,-0.033,-0.033,-0.0341,-0.0343,-0.0346,-0.0372,-0.0367,-0.0372,-0.0379,-0.0402,-0.0406,-0.0395,-0.0424,-0.0427,-0.0432,-0.0422,-0.0442,-0.0443,-0.0449,-0.0448,-0.0448,-0.0405,0,0,0,0,0,0,-0.033,-0.0329,-0.0322,-0.0342,-0.0345,-0.0341,-0.0366,-0.0372,-0.0381,-0.0384,-0.0405,-0.0409,-0.0425,-0.0431,-0.0433,-0.0423,-0.0443,-0.0449,-0.0449,-0.0448,-0.0407,-0.0403,-0.04,0,0,0,0,0,-0.0329,-0.0309,-0.0321,-0.0322,-0.0334,-0.034,-0.0344,-0.0365,-0.038,-0.0376,-0.0395,-0.0408,-0.0429,-0.0431,-0.0433,-0.0424,-0.0449,-0.0449,-0.0448,-0.0408,-0.0404,-0.04,0,0,0,0,0,0,-0.0299,-0.0311,-0.0325,-0.0309,-0.0323,-0.0346,-0.0343,-0.0361,-0.0373,-0.0377,-0.0402,-0.0407,-0.0409,-0.0422,-0.0423,-0.0426,-0.0442,-0.0442,-0.0411,-0.0407,-0.0404,-0.0391,-0.0444,0,0,0,0,0,-0.029,-0.028,-0.03,-0.0288,-0.0293,-0.0319,-0.0325,-0.034,-0.0355,-0.0362,-0.0379,-0.0396,-0.0408,-0.0411,-0.0423,-0.042,-0.0443,-0.0417,-0.0414,-0.0411,-0.0402,-0.0435,-0.0434,-0.0446,-0.0446,-0.0446,0,0,-0.0275,-0.0281,-0.0275,-0.0282,-0.0295,-0.0289,-0.0323,-0.0326,-0.0323,-0.0362,-0.036,-0.0384,-0.0405,-0.0405,-0.0407,-0.0414,-0.042,-0.041,-0.0407,-0.04,-0.0435,-0.0434,-0.0433,-0.0446,-0.0446,-0.0446,0,0,-0.0235,-0.0245,-0.0224,-0.0233,-0.0248,-0.0264,-0.0263,-0.0286,-0.0298,-0.0302,-0.0331,-0.0349,-0.0363,-0.0378,-0.0388,-0.0371,-0.0403,-0.0377,-0.0346,-0.0378,-0.0377,-0.0377,-0.0407,-0.0409,-0.0373,-0.0373,-0.0373,0,-0.0218,-0.0195,-0.022,-0.0205,-0.0204,-0.0248,-0.0228,-0.0245,-0.0268,-0.0274,-0.0294,-0.0328,-0.0349,-0.0353,-0.0351,-0.0363,-0.0387,-0.0358,-0.0374,-0.0374,-0.0374,-0.0405,-0.0408,-0.0371,-0.0371,-0.0371,-0.0371,0,-0.0165,-0.0151,-0.0139,-0.0135,-0.0139,-0.0129,-0.0157,-0.0165,-0.0191,-0.0214,-0.0231,-0.0269,-0.0289,-0.0302,-0.0321,-0.033,-0.0349,-0.0367,-0.0382,-0.037,-0.0403,-0.0408,-0.0368,-0.0368,-0.0369,-0.037,0,0,-0.0115,-0.0103,-0.0099,-0.0084,-0.0101,-0.0094,-0.0094,-0.0104,-0.0102,-0.0144,-0.0144,-0.0182,-0.0218,-0.0231,-0.0266,-0.0295,-0.0324,-0.0328,-0.0331,-0.0354,-0.0396,-0.0423,-0.0431,-0.0348,-0.0349,-0.0349,-0.0418,0,-0.0067,-0.0017,-0.003,0.0011,0.0035,-0.0004,0.0004,-0.0016,-0.0048,-0.0062,-0.0121,-0.0136,-0.0188,-0.0198,-0.0238,-0.0299,-0.0333,-0.0303,-0.0406,-0.0409,-0.0433,-0.0436,-0.0386,-0.0445,-0.0423,-0.0424,-0.0424,0,-0.0012,0.0015,0.007,0.0092,0.0098,0.011,0.0111,0.0108,0.0064,0.004,-0.0005,-0.0056,-0.0106,-0.0152,-0.0258,-0.0238,-0.0311,-0.0365,-0.037,-0.0411,-0.0444,-0.0454,-0.0454,-0.0432,-0.0431,-0.0431,-0.043,0,0.0044,0.0084,0.0133,0.0141,0.0157,0.0169,0.0167,0.0139,0.0144,0.0097,0.0097,0.0013,-0.0021,-0.0123,-0.0246,-0.0253,-0.0366,-0.0392,-0.0484,-0.0487,-0.0472,-0.0473,-0.0466,-0.0466,-0.0466,-0.0466,-0.0466,0,0.0103,0.014,0.0165,0.0191,0.0249,0.0229,0.0268,0.0248,0.0227,0.0247,0.0152,0.0148,-0.0016,-0.0104,-0.0223,-0.0366,-0.0353,-0.0478,-0.0507,-0.0457,-0.0455,-0.0464,-0.0463,-0.0468,-0.0468,-0.0467,-0.0467,0,0.0157,0.0171,0.023,0.0263,0.0277,0.0313,0.0337,0.0362,0.0331,0.0352,0.0342,0.0243,0.0126,-0.0039,-0.0208,-0.0328,-0.0464,-0.0518,-0.0448,-0.0468,-0.0571,-0.0567,-0.0632,-0.0633,-0.0635,-0.0636,-0.0637,0,0.0189,0.0227,0.0287,0.0328,0.0345,0.0393,0.043,0.0416,0.0445,0.042,0.0443,0.0328,0.0268,-0.0002,-0.0224,-0.0442,-0.048,-0.0557,-0.0568,-0.0567,-0.0589,-0.0582,-0.0576,-0.0532,-0.0532,-0.0532,-0.0532,0,0.025,0.0268,0.0317,0.0407,0.046,0.0528,0.0576,0.062,0.0613,0.0622,0.0619,0.0563,0.0304,0.0085,-0.023,-0.0377,-0.0522,-0.0566,-0.0578,-0.05,-0.0479,-0.0498,-0.0494,-0.0531,-0.0531,-0.0531,-0.0531,-0.0531,0.0291,0.034,0.0408,0.0497,0.0566,0.0664,0.0741,0.0788,0.0848,0.0882,0.0782,0.0713,0.043,0.0049,-0.0229,-0.0518,-0.0517,-0.0614,-0.0611,-0.0609,-0.0587,-0.057,-0.0636,-0.0636,-0.0637,-0.0637,-0.0638,0,0.0352,0.0409,0.0494,0.0614,0.0723,0.0734,0.0847,0.0944,0.1043,0.1008,0.0988,0.0743,0.0455,0.0132,-0.0279,-0.0547,-0.0554,-0.0642,-0.0581,-0.0579,-0.0578,-0.0552,-0.0593,-0.0594,-0.0594,-0.0595,0,0,0.0387,0.0485,0.0539,0.0739,0.0828,0.1012,0.1092,0.1206,0.1231,0.1214,0.1127,0.0982,0.0566,0.0278,-0.0091,-0.0336,-0.0396,-0.0388,-0.0393,-0.0274,-0.027,-0.0531,-0.0486,0,0,0,0,0]}],[{"header":{"parameterUnit":"m.s-1","parameterCategory":2,"la1":30.2991,"la2":30.254,"lo1":-89.0895,"lo2":-89.0444,"dy":0.0017,"dx":0.0017,"nx":28,"ny":28,"refTime":"2026-01-31T09:00:00:Z","depth":"4","parameterNumber":2,"parameterNumberName":"U-component_of_CURRENTS"},"data":[0,0,0,0,0,0,0,0,0,0,0,0,0,0,0,0,0,0,0,0,0,0,0,0,0,0,0,0,0,0,0,0,0,0,0,0,0,0,0,0,0,0,0,0,0,0,0,0,0,0,0,0,0,0,0,0,0,0,0.1051,0.1052,0,0.1127,0.1128,0.1129,0.1174,0.1175,0.1175,0.1176,0.1234,0.1235,0.1236,0,0,0,0,0,0,0,0,0,0,0,0,0,0.0918,0.092,0.1051,0.1052,0.1053,0.1127,0.1128,0.1129,0.1174,0.1175,0.1175,0.1176,0.1233,0.1235,0.1236,0,0,0,0,0,0,0,0,0,0,0,0,0,0.0981,0.0921,0.105,0.1086,0.109,0.1127,0.1128,0.1129,0.1174,0.1175,0.1175,0.1176,0.1233,0.1235,0.1237,0.1236,0,0,0.1242,0.1243,0,0,0,0,0,0,0,0,0.0978,0.0986,0.108,0.1084,0.1088,0.1144,0.1103,0.1165,0.1174,0.114,0.1176,0.1176,0.1203,0.1207,0.1218,0.1239,0.1242,0.1242,0.1243,0.1244,0.1245,0,0,0,0,0,0,0,0.0973,0.0983,0.1079,0.1081,0.1086,0.1089,0.1099,0.1115,0.1166,0.1143,0.1147,0.1159,0.1205,0.1216,0.122,0.1242,0.1242,0.1244,0.1245,0.1246,0.1335,0.1336,0,0,0,0,0,0,0.0969,0.0979,0.1077,0.1082,0.1035,0.1091,0.1102,0.1124,0.1166,0.1174,0.1158,0.116,0.1213,0.1217,0.1222,0.1291,0.1244,0.1246,0.1247,0.1334,0.1335,0.1337,0,0,0,0,0,0,0.0966,0.0977,0.1074,0.1033,0.1045,0.1094,0.1117,0.1125,0.1161,0.1178,0.1185,0.1189,0.1213,0.1219,0.1263,0.1291,0.1247,0.1248,0.1332,0.1334,0.1336,0.1386,0,0,0,0,0,0,0.0962,0.0976,0.0999,0.1033,0.1048,0.1113,0.1117,0.1126,0.1167,0.1171,0.1206,0.1211,0.1214,0.126,0.1264,0.1293,0.125,0.133,0.1333,0.1335,0.1383,0.139,0.1395,0,0,0,0,0,0.0957,0.0984,0.0999,0.1012,0.1075,0.1115,0.1123,0.1156,0.1168,0.119,0.1216,0.1211,0.1278,0.1263,0.1268,0.1297,0.1329,0.1332,0.1335,0.138,0.1388,0.1395,0,0,0,0,0,0,0.0939,0.0992,0.101,0.1053,0.1089,0.1123,0.1151,0.117,0.1208,0.1219,0.1229,0.1237,0.1284,0.1284,0.1266,0.1329,0.1302,0.1306,0.1335,0.1342,0.1348,0.1349,0.1251,0,0,0,0,0,0.0945,0.0983,0.1026,0.1063,0.1083,0.112,0.1144,0.1168,0.1202,0.1221,0.1245,0.1271,0.1295,0.1314,0.1334,0.137,0.1371,0.1391,0.1397,0.1402,0.1407,0.143,0.1438,0.1346,0.1346,0.1346,0,0,0.0948,0.0983,0.1005,0.1062,0.1094,0.113,0.1137,0.1183,0.1218,0.1219,0.1279,0.1296,0.131,0.1353,0.1374,0.136,0.1432,0.1406,0.1411,0.1412,0.1434,0.1443,0.145,0.1348,0.1348,0.1347,0,0,0.0965,0.1006,0.1041,0.1075,0.1129,0.1153,0.1171,0.122,0.1251,0.1302,0.1313,0.1348,0.1389,0.1406,0.1418,0.1469,0.1464,0.1478,0.1513,0.1535,0.1543,0.155,0.1574,0.1582,0.1481,0.1481,0.1481,0,0.0967,0.102,0.1056,0.1095,0.1128,0.1166,0.1205,0.1239,0.1298,0.1326,0.1329,0.14,0.1413,0.1461,0.1482,0.1484,0.1496,0.1483,0.1543,0.155,0.1556,0.1579,0.1587,0.1484,0.1484,0.1484,0.1483,0,0.1004,0.1053,0.1077,0.1141,0.1178,0.122,0.1268,0.1312,0.1349,0.1381,0.1445,0.1466,0.1507,0.1517,0.1517,0.157,0.1566,0.1548,0.1522,0.1568,0.1589,0.1597,0.1488,0.1487,0.1486,0.1486,0,0,0.0991,0.1085,0.1096,0.1133,0.1208,0.124,0.1303,0.1367,0.1411,0.1463,0.1518,0.1563,0.1577,0.1591,0.1598,0.1619,0.1674,0.1607,0.1607,0.1629,0.1734,0.1656,0.1657,0.1669,0.167,0.1672,0.1736,0,0.1013,0.1086,0.1132,0.1204,0.1245,0.13,0.1353,0.1414,0.1466,0.1526,0.1559,0.1612,0.1605,0.1631,0.1653,0.1671,0.1697,0.1659,0.1689,0.169,0.1613,0.1664,0.1676,0.1741,0.1743,0.1745,0.1746,0,0.1033,0.1083,0.1154,0.1241,0.1265,0.1312,0.1403,0.1458,0.1542,0.1582,0.1638,0.1666,0.1722,0.1697,0.1757,0.1737,0.1744,0.1748,0.175,0.1663,0.1626,0.1684,0.176,0.1759,0.1758,0.1757,0.1756,0,0.1,0.1098,0.1155,0.1186,0.1286,0.1332,0.139,0.1477,0.1529,0.1622,0.1665,0.1729,0.177,0.1792,0.1817,0.1794,0.187,0.1834,0.1772,0.1767,0.1794,0.1786,0.187,0.187,0.187,0.187,0.187,0,0.0998,0.1047,0.1148,0.1179,0.1248,0.1325,0.1401,0.1468,0.1561,0.162,0.1693,0.1739,0.1797,0.1845,0.1847,0.1844,0.19,0.179,0.178,0.1815,0.1809,0.18,0.1791,0.1872,0.1872,0.1871,0.1871,0,0.0952,0.1022,0.1089,0.1198,0.1234,0.1284,0.14,0.1449,0.1551,0.1629,0.1664,0.1768,0.1832,0.1881,0.1926,0.1879,0.1883,0.1866,0.1925,0.1915,0.1756,0.1749,0.1794,0.1792,0.179,0.1789,0.1788,0,0.0936,0.0968,0.1082,0.1118,0.1172,0.1255,0.1308,0.1426,0.1479,0.1631,0.1658,0.1767,0.1822,0.1826,0.1884,0.1901,0.1875,0.1867,0.1786,0.1763,0.175,0.1746,0.1742,0.1785,0.1784,0.1784,0.1783,0,0.0896,0.0943,0.0994,0.1066,0.1129,0.1192,0.1282,0.1309,0.1445,0.155,0.1611,0.1655,0.173,0.1767,0.1806,0.1807,0.1863,0.1847,0.1849,0.1773,0.1752,0.174,0.1738,0.1777,0.1778,0.1778,0.1779,0,0.0862,0.088,0.0948,0.1004,0.1073,0.1112,0.1169,0.1237,0.1304,0.147,0.1488,0.1606,0.1708,0.1722,0.1755,0.1761,0.1722,0.1651,0.1663,0.1671,0.1603,0.1557,0.1523,0,0,0,0,0,0.0824,0.0838,0.0883,0.0933,0.0993,0.1035,0.1144,0.1205,0.1332,0.1337,0.141,0.1473,0.1534,0.1598,0.1579,0.1709,0.1732,0.168,0.1656,0.1741,0.1749,0.1681,0,0,0,0,0,0,0.0798,0.0836,0.0856,0.0863,0.0876,0.0934,0.0998,0.1086,0.11,0.1232,0.1271,0.1378,0.1456,0.1516,0.1541,0.1564,0.152,0.176,0.1756,0.1737,0.1744,0.175,0.1682,0,0,0,0,0]},{"header":{"parameterUnit":"m.s-1","parameterCategory":2,"la1":30.2991,"la2":30.254,"lo1":-89.0895,"lo2":-89.0444,"dy":0.0017,"dx":0.0017,"nx":28,"ny":28,"refTime":"2026-01-31T09:00:00:Z","depth":"4","parameterNumber":3,"parameterNumberName":"V-component_of_CURRENTS"},"data":[0,0,0,0,0,0,0,0,0,0,0,0,0,0,0,0,0,0,0,0,0,0,0,0,0,0,0,0,0,0,0,0,0,0,0,0,0,0,0,0,0,0,0,0,0,0,0,0,0,0,0,0,0,0,0,0,0,0,0.0179,0.0178,0,0.0118,0.0117,0.0116,0.0083,0.0083,0.0083,0.0083,0.0029,0.0027,0.0026,0,0,0,0,0,0,0,0,0,0,0,0,0,0.0252,0.0251,0.0179,0.0178,0.0178,0.0118,0.0117,0.0116,0.0083,0.0083,0.0083,0.0083,0.0029,0.0028,0.0026,0,0,0,0,0,0,0,0,0,0,0,0,0,0.0209,0.0251,0.0179,0.0154,0.0151,0.0118,0.0117,0.0116,0.0083,0.0083,0.0083,0.0082,0.003,0.0028,0.0026,0.0016,0,0,0.002,0.0019,0,0,0,0,0,0,0,0,0.0211,0.0206,0.0158,0.0155,0.0152,0.0108,0.0123,0.0083,0.0083,0.0109,0.0083,0.0082,0.0056,0.0052,0.0041,0.0014,0.0011,0.0019,0.0018,0.0017,0.0017,0,0,0,0,0,0,0,0.0214,0.0209,0.0155,0.0157,0.0154,0.014,0.0134,0.0115,0.0084,0.0107,0.0104,0.0097,0.0054,0.0043,0.0039,0.0011,0.0019,0.0018,0.0016,0.0016,-0.005,-0.0051,0,0,0,0,0,0,0.0222,0.0211,0.0157,0.0153,0.0182,0.0139,0.0132,0.0122,0.0084,0.0078,0.0097,0.0096,0.0046,0.0041,0.0037,0.0013,0.0017,0.0015,0.0014,-0.005,-0.005,-0.0051,0,0,0,0,0,0,0.0224,0.0218,0.0159,0.0181,0.0173,0.0138,0.0127,0.0121,0.0106,0.0077,0.0071,0.0088,0.0046,0.004,0.0016,0.0011,0.0015,0.0013,-0.0049,-0.005,-0.005,-0.0028,0,0,0,0,0,0,0.0227,0.0219,0.0216,0.0181,0.0172,0.0142,0.0127,0.012,0.0102,0.0099,0.0067,0.0062,0.0045,0.0019,0.0014,0.0008,0.0011,-0.0048,-0.0049,-0.005,-0.0028,-0.0028,-0.0028,0,0,0,0,0,0.0229,0.0227,0.0216,0.021,0.0168,0.0142,0.0135,0.011,0.0102,0.0096,0.0072,0.0063,0.0009,0.0017,0.0011,0.0005,-0.0048,-0.0049,-0.005,-0.0028,-0.0028,-0.0028,0,0,0,0,0,0,0.0256,0.0222,0.021,0.0197,0.0172,0.0136,0.0129,0.0111,0.0087,0.0084,0.0058,0.0051,0.0027,0.0012,0.0021,-0.0019,-0.0022,-0.0024,-0.0003,-0.0003,-0.0003,0.001,0.0009,0,0,0,0,0,0.0261,0.0251,0.0216,0.0206,0.0195,0.0162,0.0149,0.013,0.0104,0.0093,0.0069,0.0042,0.0017,0.0005,-0.0019,-0.0037,-0.0057,-0.0047,-0.0047,-0.0047,-0.0042,-0.0081,-0.0083,-0.0055,-0.0055,-0.0055,0,0,0.0269,0.0249,0.0243,0.0211,0.0191,0.0178,0.0154,0.0134,0.0122,0.0091,0.007,0.0042,0.0011,-0.0012,-0.0024,-0.0025,-0.0066,-0.0048,-0.0048,-0.0043,-0.0082,-0.0085,-0.0087,-0.0056,-0.0055,-0.0055,0,0,0.0281,0.0262,0.0258,0.024,0.021,0.0189,0.0184,0.0147,0.013,0.0105,0.0078,0.0048,0.0013,-0.0013,-0.0029,-0.0043,-0.0065,-0.0052,-0.004,-0.0078,-0.008,-0.0083,-0.0112,-0.0117,-0.0051,-0.0051,-0.0051,0,0.0292,0.0281,0.0253,0.0245,0.0234,0.0197,0.0192,0.0168,0.0128,0.0114,0.0103,0.0039,0.0013,-0.002,-0.0027,-0.0042,-0.0064,-0.0035,-0.0077,-0.008,-0.0083,-0.0112,-0.0118,-0.005,-0.005,-0.0051,-0.0051,0,0.0299,0.0292,0.0289,0.0267,0.0253,0.0241,0.0208,0.019,0.0165,0.0138,0.0099,0.0056,0.002,0.0001,-0.0016,-0.0051,-0.0061,-0.0072,-0.0073,-0.0084,-0.0114,-0.0121,-0.0049,-0.0049,-0.005,-0.005,0,0,0.0315,0.0298,0.0297,0.0297,0.0264,0.0255,0.0236,0.0207,0.0196,0.015,0.013,0.0075,0.0048,0.0027,-0.0007,-0.0042,-0.0084,-0.0062,-0.0064,-0.0083,-0.0164,-0.0152,-0.0158,-0.0103,-0.0104,-0.0105,-0.0177,0,0.0329,0.0331,0.0314,0.0316,0.0315,0.0282,0.0272,0.0241,0.0208,0.0179,0.0124,0.0093,0.0058,0.004,-0.0002,-0.0061,-0.01,-0.0063,-0.0157,-0.016,-0.0142,-0.0165,-0.0108,-0.0182,-0.0184,-0.0185,-0.0186,0,0.0338,0.034,0.035,0.0346,0.0343,0.034,0.0319,0.0302,0.0252,0.0228,0.018,0.0134,0.0075,0.0048,-0.0059,-0.0033,-0.0096,-0.0144,-0.0148,-0.0147,-0.016,-0.0171,-0.0198,-0.0197,-0.0196,-0.0195,-0.0194,0,0.0364,0.0364,0.0379,0.0376,0.0364,0.0366,0.0356,0.0318,0.031,0.0257,0.0247,0.0163,0.0127,0.0036,-0.0065,-0.0066,-0.018,-0.0195,-0.0245,-0.0245,-0.0242,-0.0239,-0.0275,-0.0274,-0.0274,-0.0274,-0.0274,0,0.0379,0.039,0.0397,0.0404,0.0427,0.0402,0.0412,0.0389,0.0359,0.0357,0.0278,0.0257,0.0122,0.0039,-0.0057,-0.0166,-0.0178,-0.0246,-0.0265,-0.0232,-0.0227,-0.0247,-0.0243,-0.0277,-0.0276,-0.0276,-0.0275,0,0.0398,0.0402,0.0423,0.0431,0.0441,0.0455,0.0461,0.0464,0.0432,0.0428,0.0415,0.032,0.0215,0.0081,-0.007,-0.0146,-0.0256,-0.0294,-0.0242,-0.0257,-0.0299,-0.0293,-0.036,-0.036,-0.036,-0.036,-0.036,0,0.0404,0.0419,0.0455,0.0479,0.0486,0.0507,0.0527,0.0507,0.0514,0.0472,0.0477,0.037,0.0297,0.0101,-0.0049,-0.0236,-0.0263,-0.0322,-0.0321,-0.0297,-0.0309,-0.0303,-0.0297,-0.0361,-0.0361,-0.0361,-0.0361,0,0.0417,0.0436,0.0458,0.0514,0.0548,0.0584,0.0608,0.0622,0.0602,0.0577,0.053,0.0412,0.029,0.0117,-0.0033,-0.0166,-0.0285,-0.0325,-0.0326,-0.0325,-0.0299,-0.031,-0.0303,-0.0362,-0.0361,-0.0361,-0.0361,0,0.043,0.0453,0.0492,0.0537,0.0592,0.0641,0.0653,0.0661,0.0661,0.0616,0.06,0.0456,0.036,0.0153,0.002,-0.0116,-0.0155,-0.0197,-0.0205,-0.0207,-0.0143,-0.0086,-0.0102,0,0,0,0,0,0.0434,0.0459,0.0508,0.056,0.0619,0.0651,0.0698,0.0703,0.0695,0.0675,0.0636,0.0524,0.0309,0.0209,0.0077,0.0008,-0.0182,-0.0152,-0.0235,-0.0365,-0.0365,-0.0316,0,0,0,0,0,0,0.0434,0.0481,0.0505,0.0573,0.0613,0.0679,0.0715,0.0716,0.0701,0.0671,0.0562,0.0489,0.0282,0.0384,0.0072,0.0028,-0.0043,-0.026,-0.0263,-0.0366,-0.0365,-0.0364,-0.0314,0,0,0,0,0]}]]